Weather History for Fort Myers, FL

Change the Weather History Date:

Saturday, January 26, 2013

  Actual Average Record
Temperature  
Mean Temperature 65 °F 64 °F  
Max Temperature 79 °F 75 °F 86 °F (1974)
Min Temperature 51 °F 54 °F 27 °F (1905)
Degree Days  
Heating Degree Days 0 3  
Month to date heating degree days 11 97  
Since 1 July heating degree days 69 190  
Cooling Degree Days 0 3  
Month to date cooling degree days 146 77  
Year to date cooling degree days 146 77  
Growing Degree Days 15 (Base 50)    
Moisture  
Dew Point 48 °F    
Average Humidity 60    
Maximum Humidity 83    
Minimum Humidity 28    
Precipitation  
Precipitation 0.00 in 0.06 in 0.82 in (1924)
Month to date precipitation 0.46 1.61  
Year to date precipitation 0.46 1.61  
Sea Level Pressure  
Sea Level Pressure 30.23 in    
Wind  
Wind Speed 4 mph (NNE)    
Max Wind Speed 12 mph    
Max Gust Speed 15 mph    
Visibility 10 miles    
Events      
T = Trace of Precipitation, MM = Missing Value Source: NWS Daily Summary

Daily Weather History Graph

Daily Weather History Graph

Search for Another Location

Airport:

Trip Planner

Search our weather history database for the weather conditions in past years. The results will help you decide how hot, cold, wet, or windy it might be!

Date:

Astronomy

Jan. 26, 2013 Rise Set
Actual Time 7:14 AM EST 6:05 PM EST
Civil Twilight 6:50 AM EST 6:30 PM EST
Nautical Twilight 6:22 AM EST 6:58 PM EST
Astronomical Twilight 5:54 AM EST 7:25 PM EST
Moon 5:54 PM EST (1/26) 6:34 AM EST (1/26)
Length of Visible Light 11h 39m
Length of Day
10h 50m
Full, 100% of the Moon is Illuminated
Jan 26
Full
Jan 26
Full
Feb 3
Last Quarter
Feb 10
New
Feb 17
First Quarter

Hourly Weather History & Observations

Time (EST) Temp. Dew Point Humidity Pressure Visibility Wind Dir Wind Speed Gust Speed Precip Events Conditions
12:53 AM 55.9 °F 48.0 °F 75% 30.23 in 10.0 mi Calm Calm - N/A   Clear
1:53 AM 55.0 °F 48.0 °F 77% 30.24 in 10.0 mi East 3.5 mph - N/A   Clear
2:53 AM 54.0 °F 46.9 °F 77% 30.23 in 10.0 mi Calm Calm - N/A   Clear
3:53 AM 54.0 °F 46.9 °F 77% 30.22 in 10.0 mi Calm Calm - N/A   Clear
4:53 AM 54.0 °F 46.9 °F 77% 30.22 in 10.0 mi Calm Calm - N/A   Clear
5:53 AM 52.0 °F 46.9 °F 83% 30.24 in 10.0 mi Calm Calm - N/A   Clear
6:53 AM 51.1 °F 46.0 °F 83% 30.25 in 10.0 mi Calm Calm - N/A   Clear
7:53 AM 53.1 °F 46.9 °F 80% 30.26 in 8.0 mi Calm Calm - N/A   Clear
8:53 AM 62.1 °F 48.9 °F 62% 30.27 in 10.0 mi NE 5.8 mph - N/A   Clear
9:53 AM 69.1 °F 46.0 °F 44% 30.28 in 10.0 mi NNE 6.9 mph - N/A   Clear
10:53 AM 72.0 °F 46.9 °F 41% 30.28 in 10.0 mi NNE 8.1 mph - N/A   Clear
11:53 AM 75.0 °F 48.0 °F 38% 30.26 in 10.0 mi Variable 5.8 mph - N/A   Clear
12:53 PM 75.9 °F 44.1 °F 32% 30.23 in 10.0 mi ENE 9.2 mph - N/A   Clear
1:53 PM 77.0 °F 43.0 °F 30% 30.20 in 10.0 mi NNE 6.9 mph - N/A   Clear
2:53 PM 78.1 °F 43.0 °F 29% 30.18 in 10.0 mi North 5.8 mph - N/A   Clear
3:53 PM 79.0 °F 44.1 °F 29% 30.17 in 10.0 mi North 6.9 mph - N/A   Clear
4:53 PM 78.1 °F 42.1 °F 28% 30.18 in 10.0 mi NNE 5.8 mph - N/A   Clear
5:53 PM 71.1 °F 51.1 °F 49% 30.19 in 10.0 mi WNW 9.2 mph - N/A   Clear
6:53 PM 66.0 °F 50.0 °F 56% 30.20 in 10.0 mi WNW 5.8 mph - N/A   Clear
7:53 PM 63.0 °F 53.1 °F 70% 30.21 in 10.0 mi NNW 5.8 mph - N/A   Clear
9:53 PM 59.0 °F 53.1 °F 81% 30.22 in 10.0 mi Calm Calm - N/A   Clear
10:53 PM 62.1 °F 54.0 °F 75% 30.23 in 10.0 mi NNE 5.8 mph - N/A   Clear
11:53 PM 60.1 °F 54.0 °F 80% 30.23 in 10.0 mi NNE 5.8 mph - N/A   Clear